Wind_Speed
47 44 42 44 49 53 55 53 50 48 48 47 47 46 45 44 41 43 46 47 50 42 36 39 37 32 32 33 35 39 42 43 45 47 47 48 47 47 48 48 47 45 45 46 45 45 43 40 39 38 37 39 40 39 37 36 36 37 37 39 41 42 42 43 43 43 43 44 45 47 51 56 60 61 61 61 61 61 61 61 61 61 61 60 60 60
49 45 44 49 51 52 51 51 49 48 48 47 46 46 45 45 44 46 49 49 51 44 37 41 40 34 33 32 33 37 40 44 47 47 48 50 50 51 53 53 51 48 46 47 47 47 46 44 43 42 41 42 42 42 41 40 39 38 38 39 40 41 42 43 44 44 44 44 43 43 45 48 52 56 60 62 63 63 63 64 64 65 64 63 63 63
50 46 49 53 53 52 51 52 52 50 49 47 46 45 44 46 47 46 49 51 50 44 38 40 39 33 33 33 33 36 39 42 45 45 46 49 51 54 56 56 54 51 49 49 48 49 49 48 46 44 44 44 44 44 45 44 44 43 42 42 42 42 42 43 43 44 45 45 44 44 44 45 46 49 53 57 60 63 64 65 66 66 65 65 65 65
50 49 52 55 55 55 55 55 55 54 52 48 48 48 45 48 50 45 46 50 48 44 40 40 38 31 32 33 32 35 40 42 44 43 44 47 49 53 56 57 56 54 54 53 52 53 51 50 48 47 47 47 47 48 48 47 47 47 46 46 46 45 44 44 44 44 45 45 45 46 46 46 46 46 48 50 54 57 60 62 63 64 65 65 66 67
50 52 56 57 58 58 58 58 60 60 57 52 51 53 50 51 52 48 46 48 47 46 44 42 40 32 31 31 29 35 43 44 45 46 47 49 50 52 54 56 58 57 57 57 57 57 55 53 50 48 48 48 49 50 50 50 49 50 50 50 50 49 49 49 48 47 47 46 46 47 48 48 48 48 48 49 51 52 53 55 57 59 60 61 63 64
52 56 59 59 59 59 59 59 63 67 63 57 56 59 58 55 55 53 52 50 45 45 47 47 45 38 34 34 33 38 44 45 45 47 49 51 52 54 54 56 59 60 60 60 59 59 58 56 54 51 50 50 51 51 51 51 52 52 52 53 53 52 53 53 52 51 50 50 50 49 49 50 50 50 51 52 52 51 51 52 53 55 56 57 58 59
57 62 64 61 59 59 60 60 65 71 67 60 61 67 66 62 60 59 58 56 50 47 47 48 49 44 39 38 39 41 44 45 45 47 49 50 50 53 54 55 58 60 61 62 62 62 61 59 57 56 54 53 53 53 53 53 54 54 54 55 55 54 54 54 54 53 53 53 53 51 51 51 51 52 53 54 53 53 53 53 54 55 56 57 58 59
64 67 68 66 63 60 60 62 67 72 69 63 65 71 71 70 68 64 63 61 57 53 49 48 50 50 45 42 44 44 43 43 44 47 51 50 49 51 54 55 56 58 59 62 63 64 64 62 59 58 56 54 54 54 54 54 54 56 56 57 57 57 56 56 55 54 54 54 54 53 53 53 53 54 55 55 55 55 56 57 57 58 59 59 60 60
68 70 70 71 69 65 64 66 68 70 70 66 67 70 72 74 73 71 68 64 62 58 52 51 54 56 50 43 46 45 42 43 44 47 50 50 49 50 53 56 57 57 57 59 62 65 66 64 60 57 56 55 54 54 53 52 53 55 55 56 57 58 59 59 58 57 55 55 56 56 55 55 56 57 57 57 58 59 59 60 60 61 62 61 61 61
71 71 72 73 72 72 71 71 71 71 72 70 70 70 71 73 73 75 73 69 69 61 53 54 58 61 53 41 44 44 41 45 46 46 50 50 51 53 54 55 55 57 57 58 60 62 65 66 64 61 58 57 55 55 54 53 53 54 55 56 56 58 59 59 60 60 60 59 59 60 59 58 58 58 58 59 60 61 62 62 62 63 63 63 63 63
73 73 73 73 74 76 76 76 76 76 77 77 77 74 73 73 72 74 74 73 74 64 58 59 62 66 55 37 40 43 42 48 50 50 52 52 54 57 58 60 58 57 58 59 60 61 63 64 65 65 63 61 60 59 58 57 57 57 57 58 58 59 59 59 60 61 62 63 63 64 64 63 63 62 61 61 62 63 64 64 64 64 64 64 65 65
76 76 76 76 78 78 79 79 79 80 82 83 83 82 80 79 76 75 73 74 76 68 66 68 68 69 55 36 39 45 45 52 55 55 53 51 54 55 57 61 63 62 61 62 63 64 65 64 64 65 66 66 65 64 63 62 61 62 61 61 61 61 61 60 60 60 61 62 64 66 67 67 67 67 66 66 66 67 67 67 66 66 66 67 67 67
79 80 80 81 81 82 83 84 83 83 84 84 85 86 86 85 83 82 79 77 77 72 72 75 75 69 51 39 44 48 50 55 56 58 58 56 57 57 56 58 61 63 64 66 67 67 69 69 68 67 67 68 69 69 69 68 67 67 67 65 64 64 64 62 61 60 60 61 63 66 68 69 69 70 70 70 71 71 71 70 70 70 70 70 71 71
81 79 80 83 83 84 86 87 87 86 86 87 87 88 89 88 88 89 88 85 82 78 78 80 78 67 50 46 51 53 56 58 58 60 62 62 63 63 63 62 62 62 63 67 71 71 72 73 74 73 71 70 71 72 73 73 71 71 71 70 68 67 67 67 65 64 63 63 63 64 67 68 69 70 71 71 72 72 73 72 72 72 73 73 73 74
84 81 81 85 87 86 87 89 90 89 90 90 89 91 92 92 93 94 95 94 91 88 86 86 83 74 62 58 60 61 62 62 64 66 66 68 69 69 68 67 66 65 64 65 68 72 73 73 77 80 79 77 75 75 76 76 76 75 75 74 72 72 71 70 70 69 68 67 66 67 68 69 70 71 72 72 72 73 73 73 73 73 74 74 75 76
90 87 85 87 88 88 89 90 92 93 93 93 92 94 95 94 97 100 101 101 99 99 97 95 92 85 77 72 69 69 68 67 68 68 69 71 73 73 73 72 73 73 73 73 73 75 77 76 76 80 83 83 80 78 78 79 80 80 81 80 79 78 75 74 75 75 74 72 71 71 72 73 73 74 75 75 76 76 75 75 75 76 77 77 77 78
96 92 88 89 90 89 89 90 93 95 96 97 97 98 97 98 100 102 104 105 106 109 107 104 100 94 88 80 74 75 74 73 74 73 73 75 76 78 80 82 86 86 85 86 86 85 85 84 81 79 81 84 84 83 81 81 83 84 85 85 85 85 83 81 81 81 81 80 80 80 79 79 80 81 81 81 81 80 80 79 80 81 81 81 81 82
103 98 93 92 93 93 92 93 95 97 99 101 100 99 99 101 103 104 107 109 111 113 113 110 106 102 97 87 79 81 81 80 83 82 82 84 85 87 88 88 90 90 91 92 94 96 97 96 93 88 85 85 87 89 87 87 89 91 93 94 94 93 91 89 88 87 88 88 88 89 88 87 87 88 89 89 89 88 87 86 86 87 87 87 88 88
107 106 101 98 98 98 96 96 98 100 102 103 103 103 103 105 106 107 109 111 113 115 115 114 111 108 105 96 90 92 92 90 92 92 92 94 93 93 93 92 92 93 95 97 99 101 103 104 104 101 98 94 92 93 94 97 100 101 104 105 105 104 102 99 96 95 95 93 93 95 95 94 94 94 95 96 96 96 95 95 95 95 95 95 96 95
110 112 109 105 104 105 103 102 103 103 105 107 109 109 109 109 109 109 110 111 113 115 117 117 117 114 109 102 101 103 102 101 101 99 98 98 97 98 99 99 99 100 101 102 104 105 106 107 108 108 109 108 107 105 105 108 111 112 113 113 113 113 112 110 107 104 102 99 98 99 101 102 102 101 101 101 101 102 103 104 105 105 104 104 103 102
113 116 116 112 111 112 111 109 109 110 111 113 113 113 112 111 111 113 114 114 114 116 118 120 122 121 114 108 106 106 105 106 107 107 105 102 101 103 104 105 106 107 108 108 109 110 110 111 113 114 113 113 114 114 113 113 115 117 119 119 118 117 116 115 115 114 111 108 107 107 109 110 110 109 108 107 107 107 108 110 111 112 112 111 109 108
118 121 123 122 120 119 117 115 116 117 117 117 117 117 116 115 115 117 118 118 117 119 123 126 129 128 122 113 107 104 103 105 108 109 107 106 106 107 107 109 110 113 115 115 114 115 115 116 116 118 119 118 118 118 118 118 117 118 120 121 121 121 120 120 120 120 119 118 117 117 118 120 119 116 114 113 112 112 113 114 115 116 116 115 113 112
123 126 129 130 128 125 122 120 120 121 121 121 121 120 118 117 119 121 123 124 124 125 128 131 134 134 125 115 111 110 106 105 106 106 106 107 109 111 112 114 116 118 119 118 117 116 117 119 120 121 122 123 123 124 125 126 126 125 125 125 124 124 124 124 123 123 124 124 124 124 125 127 126 121 117 115 116 116 117 118 119 120 119 118 117 116
129 130 133 134 134 132 129 126 125 126 126 125 123 122 122 123 124 126 127 128 129 130 131 134 137 137 129 119 116 115 113 111 111 111 112 113 114 115 116 117 118 120 120 121 122 123 123 124 124 125 126 126 127 130 132 134 134 132 130 129 129 128 128 128 128 127 125 125 125 126 126 125 122 119 116 115 116 117 119 120 121 122 121 121 121 120
134 134 137 138 140 140 138 134 132 130 129 128 128 127 128 128 129 129 131 133 135 136 136 138 140 139 132 126 123 121 120 121 121 122 124 124 122 122 122 122 122 122 122 124 125 127 129 131 132 132 133 133 134 135 135 134 132 130 129 128 127 126 125 125 125 123 120 117 116 116 116 116 114 113 112 113 114 116 118 120 121 122 123 123 123 123
139 139 141 143 145 146 143 140 137 135 135 135 135 133 132 132 133 134 136 138 140 140 140 142 142 140 136 134 132 130 130 129 129 130 131 131 131 131 131 131 130 129 129 129 129 132 135 137 138 138 136 135 133 132 129 127 125 123 123 122 122 120 118 117 115 112 109 106 103 102 104 105 107 108 108 109 110 111 114 116 118 119 119 120 121 121
143 144 145 146 146 147 146 144 143 141 142 142 140 138 136 135 136 138 140 142 142 143 143 145 144 143 141 140 139 139 139 138 136 135 134 135 135 136 137 138 138 137 137 137 138 139 139 137 135 132 129 127 125 123 121 119 117 117 116 115 114 112 109 108 107 104 101 98 95 94 95 97 99 101 102 103 104 105 106 109 112 113 113 113 113 114
145 147 148 147 147 148 148 148 148 148 148 148 146 144 142 140 140 142 143 144 144 146 147 147 146 145 145 145 145 146 146 145 144 142 140 139 139 139 141 143 143 144 143 143 142 139 134 130 127 124 122 120 119 117 115 113 111 111 111 111 110 107 104 102 101 100 98 95 91 90 91 92 94 95 96 98 100 101 102 103 104 106 107 108 108 107
148 149 151 151 151 151 152 152 152 152 152 152 152 150 148 146 144 144 143 143 144 147 148 147 147 147 148 148 148 148 148 148 148 148 147 145 144 144 144 144 144 143 141 138 135 131 126 123 120 118 116 115 114 113 112 110 108 107 107 108 108 108 106 103 100 100 99 97 94 91 91 92 93 94 95 96 98 98 99 99 99 100 100 100 101 102
150 150 151 152 152 152 152 151 150 150 149 149 149 147 145 141 138 136 137 138 140 141 141 141 141 142 143 143 143 143 143 144 144 144 144 143 142 140 138 137 135 133 132 129 126 123 120 118 115 113 111 109 109 109 108 107 106 105 105 106 106 106 106 105 103 102 101 101 100 97 95 94 94 94 95 97 98 99 98 98 98 98 97 97 97 99
144 144 144 145 145 145 143 141 141 141 140 140 138 135 132 129 127 128 130 131 131 131 131 132 133 134 135 135 136 137 137 138 138 138 137 136 135 133 130 128 126 124 122 120 118 115 113 111 109 108 106 106 106 106 106 105 105 105 105 105 106 106 105 105 105 104 104 104 103 103 102 101 99 98 98 98 100 101 101 101 101 100 100 99 99 100
135 135 135 136 136 135 131 130 131 132 132 131 127 122 119 118 120 123 124 124 125 125 124 124 126 127 127 128 129 130 130 131 131 131 130 129 128 126 123 120 118 116 114 112 110 108 106 105 104 103 103 103 104 105 105 105 105 105 105 105 106 106 106 105 105 105 105 106 106 106 105 105 105 104 103 102 103 104 104 104 104 105 105 105 104 104
128 129 129 130 131 128 124 124 126 128 128 123 115 113 114 115 116 117 118 119 120 120 120 121 122 122 122 122 123 123 123 123 123 123 123 122 122 121 118 116 114 112 111 109 107 104 103 101 100 100 100 101 101 103 104 105 105 106 106 106 106 106 107 107 106 105 106 106 107 108 107 107 107 107 106 106 106 107 107 107 107 108 108 109 109 108
125 126 127 128 129 126 122 121 125 128 124 116 111 113 116 115 114 115 116 117 117 117 117 119 119 120 119 119 119 119 118 118 119 118 118 118 117 117 116 114 112 110 109 109 108 106 104 102 100 99 98 98 99 100 102 103 104 105 106 107 107 107 107 107 107 106 106 106 107 108 108 109 109 109 109 108 107 107 108 108 109 109 110 110 111 111
124 125 126 127 129 127 123 123 126 125 120 115 114 115 114 114 115 117 118 118 117 117 116 116 117 118 118 118 117 116 115 114 115 115 115 115 114 113 113 112 111 109 108 108 108 107 105 104 102 101 99 98 98 98 99 100 101 102 103 105 106 107 107 108 108 107 107 106 106 107 108 109 110 110 111 111 109 108 108 108 109 110 111 111 111 111
123 125 126 127 128 127 124 124 125 122 118 116 116 114 112 114 115 117 118 119 118 117 116 115 116 117 118 117 117 116 114 112 112 112 113 113 112 111 111 110 110 109 109 108 108 107 106 105 103 102 102 101 100 99 98 98 98 99 100 102 103 104 106 107 108 108 107 107 106 106 107 108 109 110 111 112 112 110 108 108 108 109 110 110 111 111
123 124 126 127 127 126 125 124 123 121 118 115 113 113 113 114 115 116 118 118 117 115 115 115 116 117 117 117 116 115 114 112 111 111 112 113 112 112 111 110 110 110 109 109 108 108 108 107 106 105 104 103 103 102 101 100 99 99 99 100 101 103 104 106 107 107 107 107 107 107 107 107 107 108 110 111 112 112 110 109 108 108 109 109 110 111
121 123 125 126 126 125 124 123 122 120 117 113 112 112 114 115 115 115 117 116 114 113 114 116 116 116 115 115 115 114 113 112 111 111 111 112 112 112 112 111 111 110 110 109 109 109 108 108 108 107 107 106 106 105 105 103 102 101 100 100 101 102 103 105 106 107 107 107 107 108 108 109 108 108 109 110 111 112 112 111 109 108 109 109 109 110
119 121 123 124 124 122 123 123 121 118 116 113 112 112 114 115 115 116 117 115 111 110 114 116 116 115 114 113 112 112 111 111 110 110 111 112 112 112 112 112 112 112 111 110 109 108 108 108 108 108 108 108 108 107 107 106 105 104 103 102 101 102 103 105 106 106 106 106 106 107 108 109 109 109 110 110 111 112 112 112 111 111 110 110 110 110
116 118 119 121 121 120 121 121 119 117 115 113 113 114 114 114 114 115 115 113 110 112 115 116 115 114 113 112 112 111 111 111 111 110 111 113 114 114 113 112 112 111 110 110 109 108 106 106 106 106 107 107 108 107 107 106 106 105 105 103 102 103 104 104 105 105 105 105 106 107 108 109 109 110 110 111 112 112 112 112 112 112 112 111 110 110
111 113 116 117 117 117 118 119 118 116 112 111 112 115 115 115 114 114 113 111 112 114 115 114 114 114 113 112 112 111 111 111 111 111 110 111 112 113 113 112 111 111 110 109 108 107 106 105 104 104 104 105 106 107 106 106 105 105 105 105 104 105 105 105 104 105 105 105 105 106 107 108 109 109 110 111 112 113 113 113 113 113 113 112 112 111
108 110 113 114 114 115 116 117 117 113 108 108 112 115 115 115 115 113 112 112 113 114 113 114 114 112 111 111 111 110 110 110 110 110 109 108 108 110 111 111 111 111 111 110 109 108 107 105 104 104 103 103 104 105 105 104 104 104 104 105 105 106 106 106 105 105 104 105 105 105 106 107 108 109 109 111 112 113 113 114 114 114 113 113 113 112
106 109 111 111 112 114 115 115 114 111 107 108 113 115 114 114 114 112 112 112 112 112 112 112 111 110 109 110 109 109 109 108 108 108 107 106 105 105 107 108 109 109 109 109 109 108 107 106 104 104 103 103 104 104 103 102 101 101 102 103 105 106 105 105 106 106 105 105 105 106 106 106 107 108 108 109 110 112 113 114 114 114 114 113 113 113
104 107 109 109 109 111 112 110 108 108 108 110 112 112 112 112 112 112 112 111 110 110 110 109 107 107 108 109 109 108 107 106 106 105 105 104 102 101 102 103 104 105 105 105 106 106 105 104 103 102 102 102 102 103 102 101 100 98 98 100 102 103 103 103 104 105 106 106 106 106 106 106 107 107 107 108 110 111 111 112 113 114 113 113 113 113
102 105 108 107 105 106 108 106 102 105 109 110 110 110 110 109 108 109 111 110 108 107 106 105 104 104 105 106 106 106 105 104 103 102 101 100 99 98 98 99 100 101 101 101 102 102 102 102 101 100 100 100 101 101 101 100 99 97 96 98 99 99 99 99 100 102 103 104 105 106 106 105 105 106 107 108 109 110 110 111 112 113 112 112 112 113
98 101 106 105 100 101 104 101 99 103 107 108 107 107 106 105 105 106 107 107 106 103 101 100 100 101 102 103 103 103 103 103 102 101 100 99 98 97 97 97 98 99 99 98 99 100 100 99 99 99 98 98 99 101 101 99 98 97 96 96 98 97 96 96 97 97 99 100 102 103 104 103 103 104 107 108 109 110 109 110 110 111 111 111 112 112
95 99 103 102 99 99 98 94 96 102 104 103 104 103 101 101 102 103 103 103 102 101 99 98 99 100 100 101 102 102 102 101 101 101 99 98 97 95 95 96 96 96 97 97 97 97 97 97 97 97 97 96 97 99 100 98 97 97 96 96 96 96 95 95 95 95 95 97 98 99 101 101 101 102 105 108 108 108 108 108 109 110 109 110 111 112
92 95 98 99 99 98 93 88 92 100 101 100 100 98 97 98 99 100 101 101 100 99 98 98 98 99 99 100 101 101 100 100 100 99 98 97 96 95 95 95 95 95 95 95 95 95 95 95 95 95 95 94 95 97 97 96 96 96 96 96 95 94 93 92 93 93 93 94 95 96 97 98 98 100 102 105 105 105 105 106 107 108 108 109 110 111
91 92 95 99 99 95 90 88 93 98 99 97 96 96 96 98 98 99 100 100 99 99 98 97 98 98 98 99 99 99 99 98 98 97 96 95 94 94 94 94 94 93 93 94 94 94 94 93 93 93 93 93 93 95 94 94 94 95 96 95 94 93 92 90 90 90 90 91 92 93 94 95 96 98 100 102 101 100 101 102 104 105 106 108 109 110
91 92 95 100 98 92 88 90 94 97 97 95 94 96 98 99 99 98 99 99 99 98 98 97 98 98 98 98 98 98 97 96 96 96 95 93 92 92 91 91 91 91 91 91 92 92 92 91 90 90 90 90 92 93 92 92 92 94 95 94 92 91 90 89 88 87 86 86 88 90 91 91 92 94 98 99 97 95 96 98 100 101 102 104 107 109
90 93 96 99 97 92 88 89 92 96 97 96 95 96 98 99 99 99 98 99 98 98 97 96 96 96 96 96 96 96 95 94 94 93 92 91 90 90 88 88 87 86 87 87 88 88 88 88 88 88 87 88 90 90 90 90 91 92 94 93 90 89 88 87 86 84 82 83 84 86 87 87 87 90 94 97 96 93 91 93 96 98 99 101 104 106
Wind_Direction
291 292 294 291 285 283 286 291 291 288 286 284 283 282 281 280 280 277 276 277 279 284 289 287 285 285 284 282 284 288 289 289 285 285 290 290 290 291 289 288 286 286 287 286 285 284 282 281 280 280 277 276 275 276 276 274 271 270 270 269 270 271 273 274 274 274 274 272 270 267 264 262 262 262 262 262 263 263 264 265 266 266 266 267 267 268
292 294 294 287 284 287 291 292 289 287 286 286 285 283 282 280 277 275 276 277 280 287 288 284 286 287 283 280 280 282 285 285 283 283 288 290 291 288 286 287 287 287 286 285 285 284 283 282 281 281 279 276 276 276 276 274 272 272 271 270 268 268 268 269 271 273 274 274 274 273 271 268 266 264 262 261 262 263 264 265 265 266 267 267 268 269
292 296 293 287 285 287 290 290 288 286 285 285 285 284 284 281 276 275 278 279 281 285 285 284 287 285 280 279 278 279 281 281 282 284 285 288 290 288 286 286 286 287 285 284 284 283 283 283 282 281 279 277 276 276 276 276 275 275 273 272 270 268 268 269 270 271 272 273 274 274 273 272 271 269 266 264 263 263 263 264 265 266 268 268 269 270
293 294 290 288 286 285 286 287 288 287 286 285 283 283 282 280 279 278 278 279 280 281 282 283 285 287 281 276 274 275 276 277 281 286 286 286 286 285 286 286 286 286 284 283 283 284 283 283 283 282 281 280 279 277 277 276 276 275 275 274 273 271 270 270 271 271 271 271 273 274 274 274 273 272 271 269 267 265 264 265 266 267 268 268 269 269
295 292 288 287 287 286 285 286 287 286 285 285 283 281 279 279 280 279 276 275 277 280 281 279 280 284 284 277 269 269 273 275 279 284 286 286 284 282 283 285 285 285 285 285 285 285 284 283 282 282 281 281 280 280 279 278 276 275 275 275 275 274 273 271 271 271 271 270 271 272 272 273 272 272 272 271 269 269 268 268 267 267 267 267 267 268
297 293 288 287 287 287 287 287 287 284 282 283 284 283 280 278 278 277 275 273 273 274 277 278 278 277 279 278 270 267 271 275 279 283 284 285 285 283 280 279 281 282 283 284 285 285 285 284 283 282 281 281 280 280 279 279 279 278 277 276 276 275 274 274 273 272 271 270 270 271 271 271 271 271 270 269 269 270 270 269 269 268 268 267 268 268
295 292 289 289 288 288 289 289 286 284 282 283 284 284 282 281 279 276 274 272 270 269 271 276 277 274 272 273 270 268 271 274 278 280 281 283 285 286 284 279 277 278 279 280 281 283 284 284 283 283 282 282 281 280 280 280 280 279 279 278 278 277 276 275 274 274 273 271 271 271 270 270 271 271 270 269 269 270 269 269 268 268 268 268 268 268
291 290 291 291 290 289 289 287 285 284 284 284 283 282 283 284 282 280 277 274 271 268 268 272 275 273 268 268 270 268 270 273 274 275 277 280 282 284 287 286 282 280 280 280 280 280 281 282 283 282 282 282 282 281 281 281 280 280 280 280 280 280 279 278 276 274 273 272 272 273 273 272 272 272 271 272 273 272 272 271 271 271 271 270 270 270
289 289 289 290 291 290 287 285 284 284 285 284 283 282 283 283 283 282 280 279 276 271 269 269 271 270 266 266 269 265 265 269 268 268 270 273 275 277 281 286 287 285 282 280 279 278 277 278 279 279 279 279 281 281 280 280 279 279 279 279 280 281 281 280 279 278 275 273 273 273 274 273 272 272 273 273 273 273 274 274 274 274 274 273 273 273
287 287 287 289 290 289 288 287 287 287 287 286 285 284 284 283 283 283 283 283 281 278 274 270 270 270 265 263 269 266 263 264 262 261 262 264 267 269 271 275 280 285 284 281 279 277 276 276 276 276 277 277 278 278 278 277 277 277 278 278 278 278 278 278 279 279 278 277 276 275 274 273 272 272 273 273 272 272 272 273 274 274 274 274 274 273
286 287 289 289 288 287 288 289 289 289 288 289 288 288 288 287 287 286 286 286 284 283 281 275 273 272 266 261 269 269 266 268 267 264 260 258 261 265 267 267 268 273 279 280 279 277 276 276 276 275 276 276 276 276 276 276 277 276 276 277 276 276 276 276 276 277 278 278 278 277 276 275 274 274 273 273 272 271 271 272 272 272 272 272 272 272
288 291 292 292 290 289 288 287 287 288 288 288 288 289 289 289 290 289 288 287 286 286 284 280 277 275 272 268 268 268 268 271 273 272 267 263 263 264 266 267 265 264 266 272 276 277 276 275 275 275 275 275 275 275 276 276 277 277 276 276 276 276 275 274 275 276 277 278 277 277 277 276 276 276 275 274 272 271 271 271 271 271 272 272 271 271
289 291 292 291 290 288 288 288 288 288 288 287 288 288 288 289 291 293 292 289 287 285 283 281 280 279 281 281 273 270 271 272 274 276 277 275 271 268 266 266 267 264 261 261 265 270 273 274 273 273 273 275 276 277 277 277 277 278 278 277 276 276 275 274 274 275 275 275 276 277 277 277 277 276 275 274 273 272 272 271 271 271 271 271 272 272
286 286 288 288 287 287 287 287 287 287 287 287 288 288 288 290 293 293 291 288 288 288 286 284 284 285 288 287 281 279 277 277 278 279 279 280 278 276 272 268 268 268 264 260 259 261 264 268 271 271 271 273 275 277 278 278 279 278 278 278 278 278 277 276 275 274 274 274 274 275 276 276 276 276 275 274 273 272 272 271 271 271 271 271 272 272
283 284 285 285 285 285 285 285 285 286 287 288 288 289 290 294 293 290 289 290 292 291 289 289 290 291 292 288 285 284 283 283 282 280 280 281 280 280 277 272 270 269 268 265 262 262 261 262 266 269 270 271 272 275 276 278 279 279 279 278 278 278 278 276 275 274 274 273 273 274 274 274 274 274 273 273 271 270 269 269 269 269 270 270 270 271
283 286 286 283 283 283 283 285 286 287 287 288 289 291 293 293 290 289 291 293 293 291 291 293 294 294 293 290 288 288 288 286 283 280 279 279 280 281 282 282 280 278 276 274 270 268 266 263 262 265 269 271 272 272 274 277 279 280 280 280 279 277 276 275 274 273 273 272 272 272 272 273 273 273 272 272 271 270 269 269 269 268 268 268 269 269
285 286 285 282 282 282 282 283 283 284 286 289 290 291 291 289 288 289 291 292 291 291 294 296 295 294 293 290 289 291 290 286 283 280 279 281 283 284 285 286 286 286 285 283 281 278 275 272 268 265 267 271 275 275 274 274 275 276 277 278 279 278 277 275 274 273 272 272 272 272 271 271 271 271 271 271 271 270 270 270 270 269 269 269 270 270
287 286 284 283 284 285 285 284 284 285 287 289 288 287 287 287 289 290 290 291 291 291 293 294 294 293 292 290 291 290 287 285 286 288 288 288 287 286 286 285 284 284 284 284 284 284 284 283 280 276 272 271 274 278 279 278 278 279 280 280 279 278 276 275 273 272 271 271 271 271 271 271 271 271 271 271 271 270 270 270 269 269 269 269 269 270
287 286 286 286 286 285 284 284 286 288 288 286 285 284 285 286 288 288 288 289 289 290 291 291 291 290 291 292 292 290 289 290 291 291 290 289 287 285 283 281 280 281 281 281 282 283 285 286 286 286 285 281 278 279 282 284 284 283 283 283 282 280 278 275 273 271 270 269 269 270 271 271 272 272 271 270 270 270 269 269 269 268 268 268 268 268
286 286 287 288 287 286 285 286 288 286 284 283 284 285 286 286 286 286 285 285 286 286 287 288 288 287 288 289 291 292 293 293 292 290 288 286 285 283 282 281 280 280 280 280 281 283 284 285 287 288 289 289 287 285 285 286 287 285 284 284 283 282 281 279 276 273 270 269 268 269 270 272 273 272 271 269 268 268 268 269 269 269 269 269 268 268
286 286 287 287 286 286 287 288 287 285 284 284 285 285 286 286 286 284 283 283 283 283 284 285 285 285 286 287 290 292 292 290 289 288 286 284 283 281 281 281 281 280 281 282 283 285 287 288 288 288 288 287 286 285 285 285 284 284 283 282 282 280 279 278 277 276 274 273 272 271 272 273 272 272 270 269 267 266 266 267 268 268 268 268 268 268
285 286 287 287 287 287 287 287 286 286 286 286 286 286 286 286 284 282 282 283 282 282 283 284 284 286 287 288 289 288 286 284 285 285 285 283 281 279 278 279 279 281 282 284 285 286 287 287 286 286 285 284 283 282 282 281 280 279 278 278 278 277 277 276 276 276 276 275 275 275 275 275 274 272 270 269 267 265 264 264 265 265 265 266 266 266
285 285 286 287 288 288 287 286 286 286 286 286 286 285 284 283 282 282 282 283 283 282 283 284 285 287 288 288 287 285 281 279 279 279 278 277 276 275 276 278 279 281 282 282 282 282 282 283 283 282 282 282 281 280 280 280 279 277 275 273 273 272 272 273 274 274 274 275 275 274 274 274 273 272 270 268 267 266 264 263 263 263 264 265 265 265
284 284 285 286 287 287 286 286 286 286 286 285 283 283 282 282 282 282 282 282 281 281 283 284 285 287 287 286 284 281 279 276 275 274 272 271 271 272 274 275 277 277 278 279 279 279 279 279 279 279 278 277 277 277 277 278 277 276 274 272 270 270 269 270 270 271 271 272 272 272 272 272 271 269 268 267 266 265 265 264 264 264 264 264 265 265
283 283 284 284 285 286 286 286 286 285 284 282 281 281 281 281 281 281 281 281 281 281 282 283 284 286 285 282 280 279 277 276 274 273 273 273 273 273 274 274 273 273 273 274 275 276 277 278 277 277 276 276 275 275 275 276 275 275 274 273 272 271 270 270 270 270 270 269 269 269 269 269 268 267 266 265 264 264 264 265 265 265 265 265 265 265
282 282 282 283 283 284 285 285 284 283 281 280 280 280 280 279 279 279 279 279 280 281 282 282 282 282 281 280 279 278 276 274 273 273 274 275 276 276 276 275 274 274 273 272 273 274 275 277 277 278 277 277 276 275 275 274 273 273 272 272 272 271 271 271 270 269 268 267 266 265 264 265 266 266 265 264 264 264 264 264 264 265 265 265 266 266
280 280 281 281 282 283 283 283 282 281 280 280 279 278 277 277 277 277 278 278 280 281 280 280 280 280 280 279 278 277 276 275 274 274 274 274 275 275 276 276 277 277 276 276 276 277 278 278 278 278 277 277 276 276 275 274 273 273 272 272 271 270 269 270 269 268 266 264 263 261 260 260 261 262 262 262 262 262 261 262 262 263 263 264 264 264
278 279 280 280 280 280 280 280 280 280 279 279 278 276 276 275 275 276 277 278 279 278 277 277 278 277 277 277 276 276 276 276 276 275 274 274 274 274 275 276 277 277 278 278 279 279 279 279 278 278 277 277 277 276 275 275 275 275 275 275 274 273 273 272 272 272 270 267 264 262 262 261 260 260 260 260 260 260 260 260 260 261 261 262 262 263
276 277 278 278 278 278 278 278 278 278 278 278 277 277 276 276 276 276 277 277 276 275 275 276 276 276 276 276 275 275 275 275 275 275 275 274 274 275 275 276 276 277 278 278 278 278 278 278 277 276 276 276 276 276 275 275 274 274 274 275 275 276 276 275 274 274 273 272 269 266 264 264 263 263 263 262 262 261 261 261 261 261 261 261 261 261
275 276 276 276 276 276 277 277 277 277 277 277 277 277 277 277 277 277 277 275 274 274 275 275 275 275 276 276 276 276 276 275 275 275 275 275 275 275 275 275 276 276 276 276 276 276 276 276 275 275 274 274 274 274 273 273 273 272 272 272 272 273 274 274 274 273 273 273 273 271 269 267 265 265 265 265 265 265 264 263 263 263 263 262 262 262
275 275 276 275 275 275 276 276 276 276 276 276 276 276 277 278 279 278 276 275 274 274 274 275 275 275 275 275 276 276 276 276 276 276 276 276 276 276 276 275 275 274 274 273 273 273 273 273 273 273 273 272 272 272 271 271 271 270 270 270 270 270 270 271 271 271 271 271 271 271 270 269 268 268 268 267 267 267 266 266 266 265 265 265 265 264
276 276 276 275 275 275 276 276 276 276 275 275 276 277 278 278 278 277 276 276 276 276 276 275 275 275 275 275 275 275 275 276 276 276 277 277 277 277 276 276 275 274 274 273 272 272 271 271 271 270 270 270 269 269 269 269 269 268 268 268 268 268 268 268 268 268 268 269 269 269 268 268 268 268 268 267 267 267 266 266 266 266 266 266 266 266
277 276 276 276 276 277 277 277 276 276 275 276 279 280 279 277 276 276 276 276 276 276 276 276 276 276 276 275 275 276 276 276 276 277 277 278 278 278 278 278 277 277 276 276 275 273 272 271 270 269 268 268 268 268 268 268 267 267 267 267 267 266 266 266 266 266 266 265 266 266 266 266 266 266 265 265 264 265 265 265 265 265 266 266 266 267
277 277 277 277 278 278 278 278 277 277 278 281 282 280 278 278 278 278 278 277 277 277 277 276 276 276 276 276 276 276 276 276 277 277 277 277 278 278 278 278 278 278 278 278 277 276 275 274 272 271 269 268 267 266 266 266 266 266 266 266 266 266 266 266 265 265 265 264 264 264 264 264 264 264 263 262 261 261 262 263 263 264 264 265 265 266
277 277 277 277 278 279 279 278 278 279 281 282 280 279 279 280 280 279 278 278 278 277 277 277 277 277 277 277 276 276 276 276 277 277 277 277 278 278 278 278 278 278 278 277 277 277 276 275 274 273 271 270 268 266 265 265 265 264 264 264 265 265 265 265 265 264 264 263 263 263 263 263 263 263 262 262 261 260 259 259 260 261 262 262 263 264
278 277 277 277 278 279 279 279 279 280 281 280 280 280 280 279 279 278 278 278 278 278 278 278 278 278 278 278 278 278 277 277 277 278 278 278 278 278 278 278 278 278 278 278 277 277 276 275 275 274 273 271 270 268 266 265 264 263 263 263 263 263 263 264 264 264 264 264 263 262 262 262 262 263 263 263 262 261 260 259 258 259 260 260 261 262
278 278 277 277 278 278 279 279 280 280 280 280 280 280 280 279 278 277 277 277 277 278 278 278 278 278 278 278 278 278 278 278 278 278 278 279 279 279 278 278 278 278 278 278 277 277 277 276 275 275 274 273 271 270 268 266 264 263 262 262 262 262 262 262 262 263 263 263 263 263 263 262 262 262 262 263 263 263 262 261 260 259 259 259 259 260
277 277 277 277 278 278 279 279 279 280 280 280 280 279 279 278 278 277 277 277 277 278 278 277 277 277 277 277 277 277 278 278 278 278 278 278 278 278 278 278 277 277 277 276 276 276 275 275 275 274 274 273 272 271 270 268 267 265 263 261 260 260 260 260 260 261 261 261 262 262 262 263 262 262 262 262 263 263 264 263 263 262 261 260 260 259
277 277 277 277 278 278 279 279 279 280 280 280 280 279 278 278 278 278 277 277 278 279 278 277 277 277 276 276 277 277 278 278 278 278 278 278 278 277 277 276 276 276 276 275 274 274 273 273 273 273 273 272 272 271 271 270 269 267 265 264 262 260 259 259 258 258 259 259 259 260 260 261 261 262 262 262 263 263 263 264 264 263 263 262 261 261
276 276 277 277 278 278 278 279 279 279 280 280 280 279 278 278 278 278 278 279 279 278 277 277 277 277 278 278 278 279 279 279 279 278 278 278 278 278 277 277 277 276 276 275 275 274 273 272 272 272 272 272 271 271 270 270 269 269 268 266 265 263 261 260 259 258 258 257 257 257 257 258 259 259 260 260 261 262 262 262 263 263 263 263 263 263
276 276 276 276 277 277 277 278 278 278 279 280 280 279 278 278 278 277 278 278 278 277 277 277 277 278 278 278 279 279 279 278 278 278 277 277 278 278 279 278 278 278 277 277 276 275 274 273 272 271 270 270 270 269 269 268 268 268 268 267 266 265 264 262 261 260 259 258 257 256 256 256 256 257 257 258 259 259 260 261 261 262 262 262 263 263
275 275 275 275 276 276 276 276 277 278 279 280 279 278 278 277 277 278 278 277 277 277 277 278 278 278 279 279 278 278 278 278 278 278 277 277 277 277 278 278 278 278 278 278 277 277 276 275 274 273 272 271 270 269 268 267 266 266 266 266 265 265 264 264 263 262 261 260 259 258 257 256 256 255 255 256 256 257 258 259 259 260 260 261 261 262
275 274 274 275 275 275 276 277 278 279 280 278 277 276 277 277 277 278 277 277 277 277 277 278 279 280 280 280 279 279 278 278 278 277 277 277 276 276 277 277 277 277 277 277 277 277 276 276 275 275 274 273 272 271 269 268 266 265 265 264 264 263 263 263 263 262 262 261 260 259 259 258 257 256 256 255 256 256 256 257 257 258 258 259 260 260
274 274 274 274 274 275 276 277 279 280 279 277 276 276 277 277 277 278 277 277 277 278 278 279 280 280 280 280 279 279 279 278 278 277 277 277 277 276 276 276 276 276 276 276 276 276 276 275 275 274 274 273 272 272 271 270 268 267 265 264 263 262 262 261 261 261 261 260 260 259 259 258 258 257 257 256 256 256 256 256 257 257 257 258 258 259
275 275 275 275 275 276 277 277 278 278 277 277 276 276 276 277 278 278 278 278 278 278 279 279 280 280 280 279 279 279 279 278 278 278 278 277 277 276 276 275 275 275 275 274 275 275 274 274 274 274 273 273 272 272 271 270 269 268 267 266 264 263 262 261 260 260 260 260 260 259 259 258 258 257 257 256 256 256 256 256 257 257 257 257 258 258
277 277 276 276 277 276 276 278 278 277 276 276 277 277 277 278 278 278 278 279 279 279 280 280 280 280 279 279 279 279 279 279 279 278 278 278 278 277 276 276 276 275 275 275 275 274 274 274 274 273 273 272 272 272 271 271 270 269 267 266 266 265 263 262 261 260 260 260 260 259 259 258 257 257 256 256 256 256 256 256 256 257 257 257 257 257
277 277 277 278 277 276 276 277 278 277 276 276 277 277 278 278 279 279 279 279 280 280 280 280 279 279 278 279 279 279 279 279 280 280 279 279 279 279 278 278 277 277 276 276 275 275 274 274 274 273 273 272 272 272 271 271 271 270 268 267 265 265 264 263 262 261 260 259 259 259 259 258 257 256 256 256 256 256 256 256 256 256 256 256 256 256
278 278 278 278 277 276 277 277 277 276 276 277 277 278 279 279 279 279 279 279 279 279 279 279 279 279 279 279 279 280 280 280 280 280 280 280 280 280 279 279 278 277 277 277 276 275 275 274 274 273 273 272 272 272 271 271 271 270 269 268 266 265 264 263 262 262 261 260 260 259 259 258 257 256 256 256 256 256 256 255 256 256 256 256 255 255
279 278 278 277 276 277 279 279 277 276 277 278 280 281 280 280 279 279 279 279 280 280 280 280 280 280 280 280 280 280 280 280 280 280 280 280 280 279 279 278 277 277 277 276 276 275 275 274 274 273 273 273 273 272 272 272 271 271 270 269 268 267 266 265 263 263 262 262 261 261 260 260 259 258 258 257 257 256 255 255 255 255 255 255 255 255
279 279 278 277 277 278 279 279 278 279 279 280 280 280 279 279 279 279 280 280 281 281 281 281 281 281 281 281 281 281 281 281 280 280 280 280 279 278 278 277 277 276 276 276 276 275 275 275 275 274 274 274 274 273 273 273 273 272 272 271 270 270 269 268 266 265 264 263 263 262 262 261 260 260 260 260 259 258 257 256 255 255 254 254 254 255
279 278 277 277 278 278 278 278 279 279 279 279 279 279 279 280 280 281 281 280 281 281 281 281 281 282 282 282 282 281 281 281 280 280 280 280 279 278 278 277 277 277 276 276 275 275 275 275 275 275 275 274 274 274 274 273 273 273 272 272 271 270 270 269 268 267 267 266 265 264 263 262 261 260 261 261 261 259 257 256 256 256 255 254 254 255
Height
10741 10744 10744 10740 10733 10728 10727 10730 10733 10733 10732 10734 10734 10735 10735 10736 10737 10732 10728 10725 10723 10733 10740 10735 10737 10740 10738 10736 10733 10728 10724 10723 10721 10718 10717 10715 10715 10715 10712 10712 10712 10714 10714 10712 10712 10712 10713 10716 10716 10717 10717 10716 10714 10713 10713 10712 10711 10710 10710 10709 10707 10707 10706 10705 10704 10705 10705 10705 10705 10706 10706 10706 10705 10706 10707 10707 10707 10707 10707 10707 10707 10707 10707 10709 10709 10709
10735 10740 10738 10731 10725 10724 10725 10725 10724 10725 10725 10726 10727 10728 10729 10728 10729 10725 10722 10719 10718 10728 10735 10730 10733 10736 10733 10732 10730 10725 10722 10717 10715 10716 10714 10711 10709 10708 10706 10705 10706 10708 10708 10706 10705 10705 10706 10708 10709 10710 10710 10710 10709 10708 10708 10707 10706 10706 10705 10704 10703 10703 10701 10700 10700 10700 10700 10699 10700 10701 10700 10699 10699 10699 10699 10699 10700 10700 10701 10700 10700 10700 10701 10702 10702 10703
10731 10735 10730 10722 10720 10720 10720 10718 10717 10718 10718 10720 10719 10720 10722 10719 10718 10721 10718 10714 10715 10722 10728 10726 10729 10733 10729 10728 10726 10721 10718 10713 10710 10713 10712 10708 10704 10700 10699 10699 10700 10701 10701 10700 10698 10698 10699 10700 10702 10702 10702 10702 10702 10702 10701 10701 10701 10700 10699 10698 10697 10697 10697 10696 10696 10695 10695 10694 10695 10695 10693 10693 10693 10693 10692 10692 10693 10693 10693 10693 10693 10694 10694 10695 10695 10695
10728 10728 10720 10715 10714 10714 10713 10711 10710 10710 10711 10713 10710 10710 10714 10710 10709 10716 10714 10709 10710 10715 10720 10720 10724 10730 10726 10724 10723 10716 10711 10709 10707 10708 10707 10705 10701 10696 10693 10691 10692 10693 10692 10692 10691 10690 10692 10693 10694 10694 10694 10695 10695 10695 10695 10695 10695 10694 10693 10692 10692 10692 10692 10691 10691 10690 10690 10690 10690 10689 10688 10688 10688 10686 10686 10686 10685 10685 10686 10686 10687 10687 10687 10687 10687 10686
10722 10717 10710 10708 10706 10706 10707 10705 10702 10701 10704 10707 10703 10700 10704 10702 10701 10706 10708 10706 10707 10709 10711 10713 10718 10726 10723 10720 10721 10713 10705 10705 10704 10703 10701 10697 10695 10693 10691 10686 10684 10685 10684 10684 10683 10681 10682 10684 10686 10687 10687 10687 10687 10687 10688 10688 10688 10688 10687 10686 10686 10686 10685 10685 10685 10685 10685 10685 10685 10684 10683 10682 10682 10681 10681 10679 10678 10678 10680 10681 10680 10680 10679 10679 10678 10678
10715 10705 10699 10700 10700 10698 10699 10700 10694 10687 10693 10702 10699 10691 10692 10694 10694 10696 10697 10699 10704 10705 10703 10704 10710 10719 10720 10717 10716 10709 10702 10702 10701 10699 10694 10690 10687 10686 10687 10684 10679 10678 10678 10677 10675 10673 10673 10675 10676 10678 10679 10680 10680 10680 10680 10681 10681 10680 10680 10679 10679 10679 10679 10678 10679 10680 10680 10680 10679 10679 10678 10677 10677 10676 10674 10673 10672 10674 10675 10674 10674 10673 10672 10671 10671 10671
10708 10696 10690 10692 10693 10691 10691 10692 10684 10674 10682 10696 10693 10682 10681 10684 10686 10687 10686 10688 10695 10699 10699 10698 10699 10708 10715 10713 10709 10706 10702 10701 10700 10694 10688 10685 10682 10677 10677 10678 10675 10673 10672 10671 10669 10666 10664 10666 10667 10668 10669 10671 10671 10671 10672 10673 10673 10673 10672 10672 10671 10672 10672 10672 10672 10673 10673 10673 10672 10672 10672 10671 10671 10669 10667 10667 10668 10669 10668 10668 10667 10666 10665 10665 10665 10665
10699 10690 10685 10683 10684 10685 10683 10680 10673 10665 10672 10686 10684 10675 10673 10674 10674 10677 10677 10679 10684 10689 10693 10694 10690 10694 10706 10708 10702 10701 10700 10699 10697 10691 10684 10680 10678 10673 10667 10666 10667 10667 10667 10664 10662 10660 10658 10658 10659 10659 10660 10661 10662 10663 10664 10664 10664 10664 10664 10663 10663 10663 10664 10664 10665 10666 10666 10665 10665 10665 10665 10664 10663 10662 10661 10661 10662 10661 10660 10660 10660 10659 10658 10658 10658 10658
10688 10684 10682 10677 10677 10677 10674 10669 10664 10660 10662 10671 10672 10668 10667 10664 10664 10666 10667 10670 10673 10679 10687 10688 10681 10678 10692 10703 10697 10695 10697 10694 10692 10687 10681 10678 10675 10671 10665 10659 10656 10656 10659 10658 10654 10652 10650 10650 10651 10651 10652 10653 10654 10654 10654 10656 10655 10655 10656 10656 10656 10655 10656 10656 10656 10657 10658 10658 10658 10657 10657 10656 10655 10655 10655 10655 10655 10654 10653 10652 10652 10651 10651 10651 10651 10650
10678 10677 10676 10673 10670 10666 10664 10660 10657 10654 10653 10656 10657 10659 10658 10656 10657 10656 10657 10661 10660 10669 10680 10678 10670 10664 10678 10696 10692 10690 10692 10685 10683 10681 10677 10676 10671 10667 10663 10659 10653 10649 10649 10649 10647 10645 10642 10642 10643 10643 10644 10644 10645 10646 10645 10647 10648 10647 10648 10648 10649 10648 10648 10649 10649 10649 10650 10650 10650 10649 10649 10648 10648 10648 10649 10648 10648 10647 10645 10645 10645 10644 10644 10644 10643 10643
10669 10669 10669 10667 10662 10657 10655 10651 10649 10647 10644 10643 10643 10646 10647 10647 10650 10648 10649 10651 10648 10660 10670 10665 10659 10652 10667 10692 10688 10682 10683 10675 10673 10671 10669 10670 10666 10662 10658 10655 10652 10649 10644 10639 10636 10637 10635 10634 10633 10633 10635 10635 10635 10636 10637 10639 10639 10640 10640 10640 10641 10642 10642 10642 10642 10642 10642 10642 10642 10641 10640 10640 10640 10641 10642 10641 10639 10638 10638 10637 10637 10636 10636 10636 10635 10635
10661 10660 10660 10657 10652 10648 10645 10641 10640 10638 10635 10633 10630 10632 10633 10635 10639 10638 10641 10640 10636 10649 10656 10650 10647 10644 10662 10686 10681 10673 10673 10667 10663 10660 10659 10661 10658 10656 10652 10647 10646 10645 10643 10636 10630 10627 10627 10627 10626 10624 10624 10625 10626 10627 10628 10630 10631 10631 10632 10633 10634 10634 10635 10635 10635 10635 10635 10635 10633 10632 10632 10632 10632 10633 10633 10632 10630 10630 10629 10628 10628 10628 10627 10627 10626 10626
10653 10652 10649 10646 10643 10639 10633 10631 10631 10629 10626 10623 10622 10621 10620 10622 10626 10625 10628 10627 10627 10637 10641 10635 10633 10639 10661 10676 10668 10664 10662 10656 10655 10652 10650 10650 10646 10644 10642 10639 10637 10635 10635 10633 10627 10622 10618 10617 10618 10618 10617 10616 10617 10619 10619 10621 10623 10623 10623 10624 10626 10627 10627 10628 10628 10628 10627 10627 10626 10624 10624 10623 10623 10624 10622 10622 10622 10621 10620 10619 10619 10619 10617 10617 10617 10616
10644 10645 10641 10634 10633 10631 10625 10621 10620 10619 10618 10615 10614 10611 10608 10611 10613 10610 10610 10610 10615 10624 10624 10621 10622 10635 10657 10663 10655 10653 10650 10646 10646 10642 10638 10637 10634 10632 10629 10627 10626 10624 10624 10623 10620 10617 10614 10611 10608 10609 10612 10612 10610 10610 10610 10611 10613 10615 10615 10616 10618 10619 10620 10620 10620 10620 10619 10619 10618 10617 10616 10615 10615 10614 10613 10613 10612 10611 10610 10610 10609 10609 10608 10607 10607 10606
10630 10637 10637 10623 10619 10621 10617 10612 10609 10609 10608 10607 10607 10602 10599 10603 10598 10591 10592 10594 10601 10606 10606 10608 10612 10626 10644 10648 10644 10642 10640 10638 10635 10630 10627 10625 10622 10620 10618 10617 10615 10614 10613 10611 10610 10608 10607 10608 10603 10599 10602 10607 10607 10605 10603 10603 10603 10604 10605 10608 10609 10610 10611 10612 10611 10610 10610 10610 10610 10609 10608 10607 10607 10606 10605 10604 10603 10602 10601 10600 10600 10599 10598 10597 10596 10595
10611 10623 10628 10614 10609 10610 10606 10603 10600 10597 10596 10597 10597 10593 10592 10593 10583 10575 10575 10579 10581 10581 10587 10596 10600 10610 10625 10631 10632 10631 10630 10628 10622 10618 10617 10613 10610 10609 10606 10605 10602 10601 10599 10597 10597 10593 10592 10596 10597 10595 10592 10595 10600 10602 10601 10599 10597 10596 10595 10596 10598 10598 10600 10602 10600 10599 10599 10600 10601 10600 10599 10598 10598 10597 10596 10595 10593 10593 10592 10592 10592 10589 10587 10587 10585 10584
10592 10605 10611 10602 10598 10599 10598 10596 10590 10586 10585 10585 10585 10584 10582 10578 10572 10567 10563 10564 10561 10555 10565 10579 10583 10593 10604 10612 10621 10621 10617 10614 10608 10606 10606 10602 10601 10597 10594 10591 10586 10585 10584 10581 10580 10578 10576 10578 10583 10588 10588 10586 10588 10592 10594 10594 10591 10589 10587 10586 10585 10585 10587 10588 10588 10587 10588 10589 10588 10588 10589 10588 10588 10587 10586 10585 10584 10584 10584 10583 10582 10579 10577 10576 10574 10573
10572 10581 10593 10591 10585 10587 10588 10586 10581 10577 10575 10572 10571 10571 10568 10563 10563 10559 10550 10549 10546 10537 10543 10556 10563 10573 10581 10594 10610 10608 10602 10601 10595 10594 10593 10589 10587 10582 10579 10577 10573 10571 10570 10567 10565 10563 10562 10562 10565 10572 10577 10578 10577 10578 10582 10582 10579 10577 10575 10574 10573 10571 10572 10573 10574 10574 10573 10574 10574 10573 10575 10576 10576 10576 10575 10574 10573 10573 10574 10573 10570 10567 10566 10564 10562 10562
10556 10555 10570 10579 10575 10572 10575 10574 10572 10571 10565 10558 10555 10555 10555 10552 10551 10548 10538 10534 10531 10523 10525 10533 10540 10550 10562 10579 10592 10588 10586 10588 10583 10581 10578 10572 10570 10566 10562 10560 10558 10557 10555 10554 10553 10551 10550 10550 10552 10557 10560 10563 10564 10565 10567 10566 10564 10561 10558 10556 10555 10553 10553 10555 10559 10559 10557 10559 10560 10559 10559 10562 10564 10564 10563 10562 10561 10561 10562 10559 10555 10553 10552 10550 10548 10549
10546 10536 10546 10565 10563 10554 10559 10565 10564 10560 10552 10545 10542 10542 10543 10542 10539 10535 10527 10523 10519 10511 10509 10511 10514 10525 10544 10565 10575 10572 10571 10572 10568 10564 10560 10556 10553 10549 10545 10543 10541 10541 10539 10539 10539 10541 10543 10542 10543 10546 10547 10546 10544 10545 10548 10548 10545 10544 10543 10542 10539 10536 10534 10535 10537 10539 10541 10544 10547 10546 10545 10546 10547 10547 10547 10547 10547 10547 10546 10543 10539 10538 10536 10534 10534 10535
10533 10524 10527 10546 10549 10541 10546 10553 10549 10542 10536 10533 10530 10528 10529 10530 10526 10518 10511 10511 10510 10500 10496 10494 10489 10498 10523 10546 10560 10563 10557 10552 10548 10544 10541 10540 10535 10530 10527 10525 10523 10522 10521 10524 10527 10529 10534 10535 10532 10531 10532 10532 10528 10525 10528 10530 10528 10526 10525 10527 10527 10524 10521 10518 10515 10517 10521 10525 10529 10531 10531 10529 10529 10529 10529 10529 10529 10529 10528 10525 10522 10519 10517 10517 10519 10521
10518 10512 10509 10520 10530 10533 10536 10536 10531 10526 10523 10520 10515 10514 10515 10514 10508 10498 10492 10497 10499 10487 10481 10478 10467 10474 10503 10527 10540 10546 10541 10532 10528 10525 10523 10522 10515 10510 10509 10507 10507 10506 10506 10511 10516 10518 10520 10520 10519 10516 10515 10514 10513 10510 10509 10511 10512 10511 10508 10508 10511 10510 10507 10503 10500 10499 10502 10505 10509 10513 10513 10510 10510 10511 10510 10509 10509 10509 10509 10506 10503 10500 10499 10502 10504 10505
10502 10496 10494 10497 10507 10516 10521 10522 10516 10510 10508 10505 10500 10500 10500 10496 10491 10482 10474 10478 10480 10469 10466 10464 10451 10456 10486 10509 10514 10515 10516 10514 10511 10509 10507 10502 10496 10493 10493 10495 10496 10496 10498 10502 10505 10506 10505 10502 10502 10501 10500 10498 10496 10494 10491 10490 10492 10493 10491 10491 10491 10492 10490 10488 10487 10486 10486 10488 10492 10493 10492 10489 10489 10491 10493 10491 10489 10488 10487 10486 10484 10482 10483 10486 10487 10488
10487 10481 10480 10480 10485 10492 10501 10509 10506 10498 10492 10486 10483 10486 10483 10477 10477 10471 10461 10459 10456 10450 10455 10451 10439 10445 10471 10489 10491 10488 10488 10489 10490 10488 10481 10477 10480 10482 10484 10488 10490 10488 10489 10489 10488 10488 10487 10485 10485 10485 10485 10484 10481 10477 10474 10471 10470 10469 10469 10469 10470 10471 10471 10471 10470 10470 10472 10474 10475 10473 10471 10468 10468 10470 10474 10473 10470 10468 10467 10466 10466 10467 10469 10470 10471 10472
10474 10469 10465 10462 10464 10471 10481 10492 10495 10488 10478 10466 10464 10470 10468 10464 10463 10455 10449 10444 10434 10435 10445 10437 10426 10439 10455 10461 10466 10470 10468 10466 10464 10459 10449 10449 10460 10467 10470 10474 10476 10477 10477 10476 10473 10470 10468 10466 10466 10465 10465 10465 10462 10459 10455 10451 10449 10447 10444 10444 10446 10448 10449 10450 10450 10451 10453 10457 10459 10458 10454 10449 10447 10449 10452 10452 10451 10450 10449 10448 10448 10450 10452 10453 10453 10454
10456 10454 10452 10446 10445 10451 10462 10473 10477 10473 10462 10451 10449 10453 10453 10452 10448 10440 10436 10429 10420 10425 10432 10421 10416 10427 10435 10434 10439 10445 10446 10444 10444 10439 10431 10431 10439 10442 10442 10443 10446 10450 10453 10455 10456 10455 10453 10449 10446 10444 10443 10441 10439 10438 10435 10431 10429 10427 10425 10423 10423 10426 10428 10428 10429 10431 10434 10437 10440 10440 10438 10434 10430 10430 10431 10432 10433 10433 10432 10432 10432 10432 10433 10434 10434 10435
10436 10435 10439 10436 10430 10433 10441 10449 10454 10453 10445 10439 10438 10438 10438 10437 10434 10428 10420 10414 10415 10414 10408 10404 10406 10407 10411 10415 10414 10413 10413 10415 10422 10427 10424 10423 10422 10420 10417 10414 10414 10418 10421 10425 10429 10430 10430 10428 10424 10422 10420 10418 10417 10415 10414 10412 10408 10406 10405 10404 10404 10405 10407 10407 10407 10408 10413 10417 10420 10420 10419 10418 10417 10415 10414 10414 10415 10415 10415 10415 10415 10415 10415 10415 10416 10417
10420 10416 10424 10425 10417 10416 10421 10424 10430 10431 10425 10422 10419 10418 10421 10423 10421 10417 10409 10408 10410 10396 10381 10388 10395 10388 10388 10394 10388 10383 10385 10387 10394 10402 10404 10405 10406 10404 10401 10397 10395 10396 10396 10397 10399 10400 10401 10401 10400 10398 10396 10394 10394 10393 10392 10391 10388 10385 10383 10382 10382 10382 10384 10386 10386 10385 10388 10392 10397 10399 10399 10399 10400 10400 10399 10398 10398 10398 10398 10398 10398 10398 10399 10400 10400 10401
10407 10401 10408 10409 10399 10397 10401 10403 10408 10409 10402 10398 10393 10391 10398 10404 10405 10405 10403 10402 10394 10375 10365 10375 10377 10368 10367 10368 10363 10363 10366 10366 10367 10370 10373 10377 10382 10383 10383 10382 10380 10379 10378 10376 10375 10376 10377 10377 10377 10377 10376 10374 10373 10371 10371 10371 10370 10369 10366 10364 10364 10363 10363 10365 10367 10367 10367 10368 10372 10376 10378 10380 10381 10382 10382 10381 10381 10381 10381 10382 10382 10382 10383 10385 10386 10385
10388 10384 10392 10391 10380 10377 10381 10382 10385 10384 10379 10375 10372 10369 10373 10381 10389 10390 10384 10378 10370 10359 10358 10361 10356 10351 10347 10344 10343 10344 10343 10342 10343 10344 10347 10351 10355 10358 10361 10362 10362 10361 10359 10358 10356 10356 10356 10356 10356 10357 10358 10357 10355 10354 10353 10352 10352 10352 10350 10349 10349 10349 10348 10348 10349 10350 10350 10350 10351 10353 10357 10360 10362 10364 10365 10364 10363 10362 10362 10364 10364 10365 10367 10369 10370 10370
10368 10365 10371 10369 10357 10357 10365 10366 10361 10358 10354 10352 10352 10356 10362 10367 10370 10364 10354 10350 10347 10344 10345 10344 10338 10335 10332 10328 10327 10325 10321 10320 10320 10321 10324 10326 10328 10332 10335 10337 10339 10340 10339 10339 10339 10339 10339 10339 10339 10339 10339 10339 10337 10336 10335 10335 10335 10334 10332 10332 10331 10332 10333 10332 10333 10334 10334 10334 10335 10336 10338 10340 10342 10344 10346 10346 10346 10345 10346 10346 10346 10348 10350 10352 10353 10353
10349 10344 10347 10345 10333 10336 10351 10349 10338 10335 10329 10326 10336 10350 10357 10355 10346 10336 10331 10329 10326 10323 10325 10325 10319 10317 10317 10314 10310 10307 10305 10305 10302 10301 10302 10303 10303 10306 10308 10310 10313 10314 10316 10318 10319 10320 10321 10322 10322 10322 10322 10321 10320 10319 10317 10317 10318 10317 10315 10314 10314 10314 10315 10315 10316 10317 10317 10317 10318 10320 10321 10323 10325 10327 10328 10329 10329 10329 10330 10330 10331 10332 10332 10333 10334 10335
10329 10322 10321 10321 10310 10315 10334 10331 10316 10309 10302 10310 10334 10341 10334 10329 10324 10319 10317 10313 10306 10304 10304 10303 10299 10298 10298 10297 10293 10290 10289 10288 10286 10284 10284 10284 10282 10282 10284 10286 10288 10289 10291 10293 10295 10298 10299 10301 10303 10304 10304 10304 10303 10302 10300 10299 10300 10299 10298 10297 10296 10296 10296 10296 10297 10298 10299 10299 10299 10301 10302 10304 10307 10309 10309 10311 10312 10312 10313 10314 10315 10315 10315 10316 10317 10317
10311 10303 10300 10298 10288 10291 10311 10311 10293 10282 10283 10304 10325 10319 10304 10305 10306 10302 10299 10295 10290 10288 10286 10282 10280 10278 10278 10277 10277 10276 10274 10272 10269 10267 10267 10267 10266 10265 10264 10265 10267 10269 10271 10271 10271 10274 10275 10277 10280 10282 10284 10285 10285 10284 10283 10283 10282 10282 10281 10280 10279 10279 10278 10278 10279 10279 10280 10281 10281 10282 10283 10284 10286 10288 10289 10291 10294 10295 10296 10297 10298 10298 10298 10299 10300 10300
10293 10287 10281 10278 10270 10271 10286 10287 10270 10265 10279 10293 10296 10292 10291 10292 10287 10281 10276 10274 10272 10270 10268 10266 10261 10257 10256 10256 10257 10258 10258 10258 10255 10251 10249 10248 10249 10249 10249 10248 10248 10249 10251 10251 10252 10253 10254 10256 10257 10259 10261 10262 10264 10265 10265 10265 10265 10265 10265 10263 10261 10261 10260 10259 10260 10261 10262 10264 10264 10264 10265 10265 10266 10267 10267 10269 10272 10276 10279 10280 10281 10281 10281 10282 10283 10284
10273 10269 10261 10258 10255 10254 10260 10262 10253 10253 10267 10274 10271 10275 10279 10273 10267 10263 10256 10252 10254 10254 10252 10250 10244 10239 10237 10235 10235 10237 10238 10240 10241 10237 10233 10229 10230 10231 10232 10232 10232 10231 10231 10231 10231 10232 10233 10235 10236 10238 10239 10239 10240 10242 10244 10246 10247 10248 10248 10246 10244 10244 10243 10241 10241 10242 10244 10246 10247 10247 10248 10248 10248 10248 10247 10247 10249 10254 10258 10262 10264 10264 10265 10266 10267 10268
10254 10250 10243 10237 10237 10238 10238 10240 10239 10238 10246 10256 10258 10258 10256 10250 10248 10246 10237 10233 10237 10239 10236 10232 10227 10222 10220 10218 10217 10217 10218 10220 10223 10221 10217 10213 10212 10212 10213 10215 10214 10214 10214 10213 10212 10213 10213 10214 10216 10217 10217 10218 10218 10218 10221 10224 10227 10229 10230 10229 10227 10226 10226 10224 10223 10225 10227 10228 10229 10229 10230 10230 10231 10232 10230 10229 10229 10231 10235 10240 10244 10246 10247 10249 10251 10251
10238 10232 10227 10218 10218 10223 10220 10219 10222 10223 10226 10238 10243 10240 10234 10227 10226 10225 10217 10215 10221 10224 10218 10212 10208 10207 10205 10202 10201 10200 10200 10202 10206 10206 10201 10197 10196 10195 10194 10195 10195 10195 10196 10196 10195 10195 10195 10195 10196 10196 10196 10196 10196 10196 10197 10200 10203 10206 10209 10209 10209 10208 10207 10206 10206 10208 10211 10213 10213 10213 10213 10213 10214 10215 10215 10214 10213 10213 10215 10218 10223 10226 10228 10230 10232 10234
10222 10213 10210 10202 10200 10207 10204 10198 10203 10208 10210 10217 10222 10219 10213 10207 10206 10203 10195 10196 10208 10209 10196 10187 10186 10187 10186 10186 10185 10185 10185 10185 10189 10190 10185 10179 10178 10178 10177 10177 10177 10176 10176 10177 10178 10179 10179 10178 10178 10177 10176 10176 10176 10175 10176 10178 10180 10182 10184 10187 10188 10188 10187 10187 10188 10190 10193 10196 10197 10197 10197 10196 10197 10198 10199 10199 10199 10198 10199 10201 10203 10205 10208 10210 10213 10215
10207 10200 10196 10189 10185 10189 10187 10181 10185 10191 10195 10198 10198 10195 10190 10188 10188 10183 10177 10183 10191 10184 10172 10167 10167 10167 10167 10168 10168 10169 10169 10168 10169 10171 10169 10162 10157 10156 10156 10157 10157 10157 10157 10157 10157 10158 10160 10161 10161 10160 10159 10157 10156 10156 10156 10158 10160 10160 10161 10164 10165 10165 10165 10167 10169 10171 10174 10177 10179 10180 10180 10180 10180 10182 10182 10183 10183 10183 10183 10184 10185 10187 10188 10190 10193 10195
10195 10189 10181 10174 10173 10175 10171 10166 10167 10173 10183 10187 10179 10170 10167 10167 10166 10165 10166 10169 10165 10156 10153 10153 10151 10151 10153 10153 10152 10152 10153 10151 10149 10150 10152 10150 10144 10138 10136 10136 10137 10136 10136 10136 10136 10136 10138 10140 10141 10141 10141 10140 10138 10137 10137 10139 10142 10142 10141 10142 10143 10142 10142 10146 10149 10151 10153 10157 10159 10161 10161 10162 10163 10164 10165 10165 10165 10166 10166 10167 10168 10170 10171 10172 10174 10176
10182 10173 10163 10161 10161 10158 10153 10150 10149 10159 10175 10175 10158 10146 10147 10146 10144 10148 10150 10146 10141 10138 10139 10136 10133 10135 10137 10137 10136 10135 10134 10134 10133 10131 10132 10134 10132 10127 10122 10119 10118 10117 10116 10115 10115 10115 10115 10118 10119 10119 10120 10120 10118 10118 10118 10120 10123 10125 10124 10124 10122 10121 10122 10125 10128 10130 10133 10136 10138 10140 10141 10142 10144 10145 10147 10148 10148 10149 10150 10151 10151 10153 10154 10155 10157 10159
10165 10154 10148 10150 10147 10139 10137 10139 10138 10146 10159 10154 10135 10129 10131 10127 10126 10130 10129 10125 10123 10123 10122 10119 10119 10121 10119 10117 10117 10116 10115 10116 10115 10113 10113 10114 10117 10115 10111 10106 10103 10100 10098 10096 10095 10094 10094 10097 10099 10099 10099 10099 10096 10095 10097 10099 10103 10107 10106 10105 10103 10102 10105 10108 10108 10109 10113 10115 10116 10118 10120 10122 10123 10125 10128 10130 10130 10131 10134 10135 10135 10136 10138 10140 10141 10143
10149 10136 10129 10134 10135 10126 10123 10130 10134 10132 10130 10125 10116 10114 10114 10111 10111 10110 10107 10107 10108 10107 10105 10106 10107 10106 10101 10097 10094 10094 10096 10097 10096 10095 10095 10096 10098 10100 10098 10093 10088 10085 10083 10081 10078 10077 10076 10077 10080 10080 10079 10079 10076 10074 10075 10076 10080 10085 10086 10083 10081 10082 10087 10090 10090 10091 10094 10095 10096 10098 10100 10101 10103 10105 10108 10110 10111 10113 10116 10118 10118 10119 10122 10124 10125 10127
10134 10123 10109 10114 10125 10119 10107 10116 10127 10117 10102 10098 10098 10097 10095 10097 10099 10093 10086 10087 10091 10092 10092 10092 10091 10089 10085 10080 10076 10075 10075 10076 10076 10077 10078 10077 10079 10081 10080 10077 10072 10068 10068 10066 10063 10061 10059 10059 10062 10062 10061 10060 10057 10054 10054 10055 10057 10063 10066 10062 10059 10062 10068 10071 10072 10074 10076 10076 10077 10079 10080 10083 10085 10087 10088 10090 10092 10094 10098 10100 10101 10102 10105 10107 10109 10111
10119 10109 10091 10094 10111 10107 10094 10103 10111 10096 10082 10080 10081 10080 10081 10082 10082 10078 10072 10070 10072 10076 10079 10078 10075 10073 10068 10063 10060 10059 10057 10057 10057 10058 10060 10060 10061 10062 10061 10059 10056 10052 10051 10051 10048 10044 10042 10042 10044 10044 10043 10044 10041 10034 10034 10037 10038 10042 10045 10043 10040 10043 10048 10051 10054 10056 10058 10059 10060 10060 10061 10064 10067 10068 10069 10070 10073 10075 10078 10081 10083 10085 10087 10089 10092 10094
10104 10092 10077 10079 10089 10085 10084 10096 10093 10072 10066 10068 10065 10067 10071 10068 10064 10062 10058 10057 10058 10060 10062 10062 10058 10055 10051 10048 10045 10043 10042 10042 10040 10040 10041 10042 10043 10045 10043 10040 10039 10036 10034 10032 10030 10027 10026 10025 10026 10025 10024 10026 10025 10018 10015 10018 10020 10020 10022 10023 10022 10024 10028 10032 10034 10037 10040 10041 10042 10043 10043 10045 10048 10050 10050 10051 10054 10058 10060 10063 10065 10067 10070 10072 10074 10076
10087 10077 10066 10062 10063 10062 10073 10089 10077 10053 10050 10055 10053 10055 10059 10055 10050 10048 10043 10042 10044 10044 10044 10044 10041 10039 10037 10034 10031 10028 10028 10028 10026 10024 10025 10026 10027 10028 10025 10022 10020 10018 10016 10014 10011 10009 10009 10008 10008 10007 10006 10008 10007 10002 10000 10002 10003 10000 9999 10000 10003 10006 10010 10014 10016 10019 10022 10024 10024 10025 10026 10027 10029 10032 10033 10034 10037 10040 10044 10046 10048 10050 10054 10056 10057 10059
10066 10062 10054 10041 10039 10050 10064 10069 10056 10039 10038 10044 10045 10044 10041 10037 10035 10034 10029 10027 10028 10027 10028 10028 10025 10024 10022 10018 10016 10014 10013 10013 10012 10009 10010 10012 10012 10010 10007 10005 10003 10002 10000 9998 9995 9992 9991 9991 9991 9991 9991 9992 9990 9986 9986 9987 9986 9983 9980 9980 9984 9987 9990 9995 9999 10001 10006 10008 10007 10007 10008 10009 10011 10014 10015 10017 10021 10024 10027 10029 10031 10034 10037 10039 10039 10041
10047 10045 10037 10021 10024 10043 10053 10048 10037 10026 10026 10032 10034 10029 10022 10018 10018 10020 10018 10016 10014 10013 10013 10011 10008 10007 10005 10003 10001 10000 9998 9999 9997 9994 9993 9995 9995 9993 9991 9989 9987 9987 9986 9982 9980 9978 9976 9976 9977 9977 9978 9978 9973 9971 9972 9973 9971 9967 9963 9963 9968 9971 9972 9976 9981 9985 9990 9992 9991 9991 9991 9992 9995 9996 9996 9998 10003 10007 10010 10012 10013 10016 10020 10022 10022 10024
10032 10026 10018 10009 10013 10028 10036 10035 10027 10015 10011 10016 10018 10014 10008 10005 10003 10004 10004 10001 9999 9999 9998 9997 9995 9994 9991 9988 9986 9984 9983 9983 9981 9978 9978 9978 9976 9976 9975 9973 9972 9973 9972 9968 9966 9965 9964 9964 9963 9963 9964 9963 9959 9957 9958 9958 9956 9951 9946 9946 9952 9954 9955 9958 9962 9967 9973 9974 9974 9974 9975 9976 9979 9979 9978 9979 9983 9988 9992 9995 9995 9998 10002 10005 10005 10006